Location: Ammerl�gen
(47.2167°N, 9.6000°E)
Time: 04:24:06
(UTC+00:00)

NOAA 19 - Pass Details

Date: 10 December 2021
Orbit: 841 x 860 km, 99.2° (Epoch: 16 January)

Event Time Altitude Azimuth Distance (km) Brightness Sun altitude
Rises 17:22:25 0° 147° (SSE) 3,387 8.2 -17.9°
Reaches altitude 10° 17:24:49 10° 142° (SE) 2,458 7.4 -18.3°
Maximum altitude 17:30:04 52° 68° (ENE) 1,051 5.3 -19.2°
Drops below altitude 10° 17:35:23 10° 354° (N) 2,484 7.6 -20.1°
Sets 17:37:49 0° 349° (N) 3,426 8.4 -20.5°
